RH
71 73 79 87 94 84 85 81 91 59 81 51 94 99 100 100 99 99 99 96 82 72 62 63 26 8 8 11 13 15 17 25 31 46 48 58 54 48 45 48 54 46 32 30
83 82 84 89 85 73 82 65 62 58 68 64 90 100 100 100 98 95 93 81 63 71 62 54 13 11 15 16 15 18 21 23 33 43 55 65 64 63 66 69 40 32 34 32
96 89 95 95 78 75 66 63 65 79 72 76 86 93 90 84 83 95 98 92 64 49 38 10 14 22 19 18 19 20 22 25 29 35 51 62 68 77 79 35 26 25 14 10
97 98 95 71 62 65 67 70 75 78 88 92 85 88 74 70 79 72 50 46 34 13 9 11 16 21 23 24 20 22 25 28 31 34 38 39 41 43 26 15 14 13 12 10
99 98 90 83 60 66 67 67 86 92 95 96 90 52 26 18 29 32 21 12 10 11 13 14 16 22 22 19 21 30 34 33 33 35 36 27 24 24 17 16 16 14 13 11
99 98 87 68 75 82 84 86 81 92 94 61 53 25 10 9 11 14 20 23 22 27 33 30 24 27 44 50 43 36 48 47 42 32 27 23 19 18 19 19 21 20 17 14
99 98 92 80 86 94 94 88 93 91 76 39 15 19 15 13 13 16 17 22 32 49 72 72 58 54 70 81 73 64 78 73 69 59 37 25 21 21 21 23 26 26 23 18
98 98 92 84 90 88 96 96 83 52 31 32 34 32 36 41 47 52 61 72 78 77 75 79 94 95 88 85 88 73 78 86 88 67 64 43 27 25 24 26 29 30 27 21
98 91 93 95 97 97 86 60 56 46 34 47 57 58 58 59 56 69 75 83 81 87 82 78 76 83 81 93 86 79 89 92 81 72 67 67 42 31 30 30 33 34 32 26
98 98 98 98 96 83 68 57 49 42 40 39 45 49 45 41 59 72 78 89 97 98 96 80 97 98 85 78 97 95 80 90 77 79 72 67 76 43 39 40 39 39 38 34
97 98 98 95 94 74 66 51 41 37 24 21 30 52 76 86 92 96 98 100 96 90 85 83 95 96 97 97 95 97 97 100 92 96 74 73 76 85 55 52 47 44 42 41
97 97 96 81 56 45 37 33 21 15 22 40 52 60 56 71 84 78 70 73 83 93 99 94 96 94 78 80 91 88 93 99 98 98 97 92 91 86 94 92 75 54 50 48
93 90 56 44 31 28 26 23 20 29 34 33 29 32 39 39 31 26 33 45 73 84 100 100 100 93 98 96 96 93 95 95 97 98 98 97 95 95 94 99 94 90 81 68
56 48 48 37 31 24 17 19 19 21 21 19 8 5 5 6 8 10 17 44 66 65 62 55 45 42 47 48 75 92 92 98 97 98 98 98 97 98 100 95 95 95 97 96
42 38 36 26 13 14 14 16 17 8 3 4 5 6 7 8 10 11 13 14 16 18 20 20 20 20 20 23 53 76 81 100 98 98 99 97 98 97 96 98 100 99 96 96
38 21 12 12 12 13 12 5 2 3 4 4 5 6 7 9 10 12 15 18 20 22 24 24 25 27 28 30 37 63 86 98 100 100 100 98 98 100 100 100 99 99 98 97
16 12 11 11 10 6 2 2 2 3 3 5 6 8 10 13 17 20 23 28 33 38 41 46 46 44 40 34 35 50 87 93 99 100 100 100 100 100 100 99 97 97 90 90
12 11 10 8 3 2 2 2 3 3 4 6 8 12 16 20 22 27 33 39 43 49 54 59 60 61 64 62 62 58 48 45 51 59 69 94 97 100 100 100 100 100 96 87
12 10 7 3 2 2 2 3 3 4 6 9 12 18 24 28 33 39 44 46 48 50 49 52 55 57 59 62 63 66 71 75 77 71 59 62 78 89 90 84 85 96 98 91
11 7 3 2 2 3 3 3 5 6 9 12 15 19 23 28 31 35 40 44 48 49 52 54 55 57 57 56 55 57 61 67 74 81 88 91 79 61 54 52 51 52 52 63
7 4 2 2 2 3 4 5 7 9 12 13 17 21 24 30 34 38 42 45 51 54 56 59 61 61 61 59 58 61 64 66 79 91 93 98 100 97 94 91 85 75 63 50
4 2 2 2 2 4 5 7 9 11 12 13 18 20 23 27 30 35 43 46 50 55 58 60 65 68 66 64 66 71 83 91 97 100 99 100 100 94 91 91 90 90 92 86
3 2 2 2 3 5 7 8 9 11 12 14 17 19 22 23 24 25 27 37 47 57 64 69 74 75 76 75 78 81 91 99 100 100 100 100 99 95 91 91 95 96 95 96
2 2 2 3 5 6 8 9 10 11 14 16 18 20 22 21 24 27 30 37 47 56 67 74 77 80 82 85 88 90 93 100 100 100 99 100 100 100 99 100 99 100 100 97
2 2 3 4 6 7 8 9 10 11 14 16 17 21 22 22 23 24 27 32 41 52 65 75 78 81 85 89 92 96 99 100 100 100 100 100 100 100 100 100 100 100 100 98
3 3 4 6 7 8 8 10 11 13 14 16 19 22 22 25 26 25 28 31 37 48 60 73 80 85 89 91 95 98 99 100 100 100 100 100 100 100 100 100 99 96 95 95
3 3 5 7 7 8 10 12 14 16 17 17 18 20 24 27 28 27 26 25 30 39 51 68 82 89 93 95 98 100 100 100 100 100 100 100 100 100 100 100 100 100 99 98
Wind_Speed
29 30 32 33 32 35 36 41 41 62 50 42 38 36 33 29 31 32 29 39 36 33 34 38 39 34 33 32 33 32 31 30 31 28 28 21 20 19 20 21 24 26 27 24
36 31 35 38 37 43 41 43 46 41 41 31 23 24 33 34 32 34 35 35 30 34 39 43 36 32 32 32 33 33 31 30 30 29 27 23 25 25 23 24 25 23 22 20
32 28 27 29 35 33 33 29 30 35 34 33 30 25 25 27 29 32 30 31 34 37 42 35 31 33 35 33 33 33 32 30 30 29 27 27 25 27 27 23 20 19 19 20
30 29 21 27 12 17 29 33 36 32 28 24 19 23 25 27 27 25 27 33 39 39 35 33 33 36 38 36 34 34 33 32 31 30 28 28 27 25 23 20 20 20 20 20
22 28 34 38 26 25 28 24 23 25 22 23 22 23 26 26 28 30 33 35 35 36 37 37 37 37 40 42 37 34 35 32 29 30 30 28 25 23 22 21 21 20 20 21
22 12 7 20 29 24 22 21 21 21 19 15 24 32 28 26 28 29 30 33 35 34 34 37 38 40 39 40 40 35 30 28 28 29 32 31 28 26 24 24 23 22 21 22
30 20 21 28 25 19 13 9 14 14 21 28 26 25 26 26 29 31 34 35 35 37 40 44 43 40 39 38 39 42 39 32 30 33 33 34 32 29 28 26 24 23 23 22
19 13 12 22 17 17 15 16 20 22 23 23 25 28 31 33 37 36 35 32 33 38 41 39 42 43 41 45 41 39 45 43 36 36 36 35 34 32 30 28 26 25 23 22
21 20 30 31 27 19 19 22 22 26 26 26 28 31 35 39 37 36 37 37 39 39 44 43 43 48 53 45 43 41 45 49 40 40 39 36 35 35 33 31 29 28 26 24
32 34 33 24 18 19 23 24 26 29 30 33 37 41 43 40 39 39 40 41 41 42 45 49 50 44 46 50 38 40 39 41 43 44 37 37 37 34 33 33 31 30 29 27
30 29 22 20 19 23 27 32 25 30 34 35 36 37 39 43 44 44 43 44 45 50 52 51 40 38 37 36 31 28 30 40 44 44 37 35 32 36 33 32 33 32 31 30
28 22 18 19 25 26 25 28 32 33 34 35 37 40 43 44 46 48 49 49 47 44 39 53 41 42 49 49 44 41 39 36 40 44 42 37 33 29 35 36 33 33 31 31
18 15 20 22 23 25 28 31 32 33 36 39 42 44 44 44 45 48 48 48 49 51 49 50 46 45 44 43 35 31 30 36 36 40 43 42 35 31 30 32 38 36 32 31
18 18 24 23 24 26 27 29 32 35 39 42 40 39 39 39 38 37 39 43 46 48 49 49 48 47 48 42 39 37 33 26 28 30 32 32 31 30 30 29 30 33 35 35
20 22 24 24 24 24 26 30 34 36 33 32 32 34 34 34 33 33 33 33 33 34 36 36 35 35 35 34 33 32 29 23 27 33 31 30 31 32 31 30 30 30 30 27
20 18 18 20 22 25 29 32 29 30 31 31 31 30 30 30 30 30 29 30 31 31 32 33 32 32 32 32 30 29 27 25 26 26 29 30 29 28 29 30 31 31 31 31
15 15 17 20 24 27 26 28 29 30 29 27 27 28 27 27 28 29 29 30 31 32 33 33 33 32 31 31 30 30 31 30 29 29 26 26 27 27 27 31 34 34 34 35
16 17 19 23 24 25 26 26 26 26 26 25 25 26 27 29 30 30 31 32 33 33 33 33 34 34 34 35 33 33 32 31 31 32 36 37 36 34 30 29 32 35 36 37
17 18 21 22 24 23 22 22 24 23 22 22 23 25 28 30 31 32 33 33 34 35 35 35 35 35 36 37 38 37 37 37 36 36 36 38 41 41 40 40 41 40 39 39
17 18 19 20 19 18 21 22 21 20 21 22 23 25 27 28 29 30 32 32 34 35 36 36 37 38 38 40 40 39 38 37 38 39 39 40 41 40 40 40 41 43 44 46
15 16 17 18 17 18 19 19 18 18 20 21 22 24 25 27 30 32 33 34 34 36 36 37 38 39 41 43 41 38 38 37 36 35 34 34 34 36 37 38 38 38 37 39
13 14 15 15 16 17 17 17 18 18 20 21 22 24 26 28 30 31 33 36 36 37 38 39 40 41 43 44 42 39 36 33 30 30 29 29 28 29 30 31 33 34 35 35
11 12 12 14 14 15 16 17 18 19 20 22 22 24 27 29 32 33 33 34 37 38 39 40 41 42 45 43 40 38 34 30 27 26 26 27 29 31 31 32 31 30 31 32
10 10 12 12 12 14 15 17 18 19 21 23 24 26 27 27 29 32 34 36 37 38 39 41 42 42 43 40 40 37 34 29 26 26 27 28 28 27 27 27 28 27 28 29
8 9 10 10 12 13 14 16 17 18 21 23 24 25 27 29 31 33 34 36 37 38 39 40 42 43 43 41 40 39 35 31 27 26 26 25 24 23 23 22 22 23 24 25
8 9 9 10 12 12 13 14 16 18 20 23 25 25 27 29 30 31 33 34 36 38 39 41 42 44 44 43 43 40 35 31 28 25 24 24 24 24 22 21 22 22 22 22
9 9 8 11 12 12 13 15 16 19 21 24 26 27 28 29 30 31 32 33 35 37 38 40 42 44 45 45 45 40 35 31 28 25 23 23 23 22 22 21 20 19 18 18
Wind_Direction
279 279 276 274 277 284 277 278 277 289 286 310 299 277 261 266 283 280 266 292 288 288 298 306 311 302 301 302 303 305 308 310 311 306 295 277 264 266 271 279 289 293 298 301
284 281 280 281 283 286 282 289 285 293 292 310 305 295 281 285 289 292 290 290 281 287 296 304 297 292 295 297 302 303 305 307 304 300 294 283 264 265 271 280 287 292 297 301
280 291 282 281 282 285 287 288 292 283 297 290 296 293 293 296 294 289 282 278 285 292 298 295 290 291 296 297 299 298 298 298 295 292 288 287 289 272 278 284 287 291 292 295
277 285 270 274 285 292 290 282 281 280 283 284 294 300 307 295 284 281 280 284 289 291 290 289 292 292 291 289 292 295 294 290 288 287 284 283 280 277 275 279 283 284 288 293
262 269 274 290 291 297 287 280 271 269 272 276 303 302 295 296 288 285 289 292 295 296 295 293 292 293 292 292 293 290 286 279 281 283 281 279 276 273 273 276 278 282 288 291
253 271 273 295 303 290 275 263 262 265 283 285 284 295 295 292 292 292 293 295 294 294 296 297 295 296 298 307 303 287 281 284 282 281 281 277 273 270 271 274 279 284 286 288
244 251 270 282 287 260 254 274 262 282 288 286 291 293 297 294 291 292 292 293 296 302 305 304 299 302 296 298 305 303 289 290 293 295 284 278 273 271 271 274 279 283 287 290
237 243 273 260 254 255 262 282 299 293 302 301 302 304 304 303 303 299 300 304 300 296 300 297 294 291 297 293 294 297 292 283 285 292 293 280 274 271 270 271 274 277 279 284
245 259 272 269 264 273 299 298 293 300 303 299 295 292 293 296 296 298 300 299 295 291 294 292 292 291 296 293 296 289 283 286 284 294 292 284 272 270 269 269 271 272 274 276
267 265 264 261 274 299 291 288 289 289 287 291 292 292 293 297 299 300 300 291 287 285 285 294 289 285 287 297 275 277 282 283 287 289 291 290 275 271 268 268 267 268 270 272
259 253 242 272 290 272 269 282 278 285 291 291 295 300 302 301 301 298 293 292 291 295 297 294 299 303 288 279 309 289 272 278 277 277 283 283 293 271 270 273 269 268 269 271
259 260 267 264 264 270 275 283 291 296 299 300 301 302 302 299 297 298 301 301 302 299 289 307 297 295 299 297 287 299 289 264 269 271 273 275 284 285 274 261 267 272 272 273
271 248 246 260 270 277 287 293 297 298 302 304 302 300 299 302 304 304 303 302 300 301 301 302 299 296 294 286 289 298 287 274 266 263 268 267 268 272 273 274 266 261 264 268
250 250 256 269 278 286 289 291 297 302 302 301 304 308 311 312 313 313 310 305 303 302 300 298 299 298 299 296 297 293 285 279 283 277 273 271 267 270 272 270 268 269 265 262
238 252 259 272 276 282 294 302 301 300 305 314 318 318 322 326 328 332 332 330 328 324 317 313 312 310 305 298 296 290 279 276 270 270 272 274 274 274 276 272 268 266 267 264
254 256 260 273 288 299 300 299 311 322 323 321 324 329 334 337 340 340 340 336 336 336 335 334 332 328 322 316 309 300 294 276 277 267 265 271 271 268 265 264 266 268 269 270
248 261 276 290 298 300 312 327 325 322 324 331 334 337 337 337 334 331 331 330 329 329 328 327 325 323 319 317 311 304 294 291 282 278 279 270 262 261 259 259 262 264 267 270
260 275 288 294 305 327 327 320 320 329 333 335 338 336 334 331 329 329 329 329 328 328 325 322 320 317 314 309 307 303 299 295 290 280 277 280 275 270 266 263 262 262 263 264
265 281 293 317 329 318 314 325 334 332 334 335 337 334 330 329 329 329 330 330 329 329 328 327 324 321 317 312 309 304 299 294 289 284 278 273 270 270 271 273 270 266 265 264
274 293 320 318 307 316 332 333 331 333 334 336 335 329 328 330 331 334 334 334 333 332 332 330 328 325 323 321 315 309 303 296 291 288 281 276 274 273 272 272 269 266 265 264
290 311 308 305 321 332 332 331 330 332 331 331 331 333 337 339 340 338 336 336 335 334 333 331 330 329 329 326 322 313 306 301 297 292 288 283 278 275 274 273 271 269 267 266
299 299 303 319 329 333 331 326 325 329 326 331 336 339 342 343 343 342 340 339 338 337 337 336 335 333 332 331 328 321 314 306 299 295 293 291 288 285 282 278 274 270 266 264
289 296 316 328 332 331 323 317 320 321 326 333 338 341 343 343 343 343 343 342 341 341 340 339 338 337 337 335 333 330 323 314 304 298 293 288 287 288 284 280 276 271 268 265
291 317 327 330 330 321 313 313 318 325 329 333 337 338 338 340 342 342 343 343 343 343 342 341 340 340 341 340 338 334 329 319 310 304 300 297 294 291 286 282 279 275 270 266
317 326 327 329 316 307 309 318 326 330 332 331 333 333 334 339 342 344 345 345 345 344 344 343 344 345 346 345 343 339 333 326 314 306 305 305 300 296 294 286 282 279 273 267
328 320 320 305 298 305 316 326 331 336 338 337 334 332 334 337 339 343 345 345 347 347 347 347 348 349 350 349 347 343 338 333 325 315 308 303 300 294 291 289 285 283 277 272
311 307 299 289 297 307 317 326 332 336 340 343 340 338 338 337 339 342 344 346 349 350 351 351 353 353 353 353 353 351 347 343 339 331 322 314 309 305 294 288 286 280 274 266